This is the latest recevied weather packets stored in our database for station/object K5NAN. If no packets are shown the sender has not sent any weather packets the latest 10 day(s).
| Time | Temp. | Humidity | Pressure | Rain* | Wind** | Luminosity | Snow |
|---|---|---|---|---|---|---|---|
| 1777672482 | 16.67° C | 59% | 1014 hPa | 0 mm | - | 140 W/m² | - |
| 1777672177 | 16.67° C | 59% | 1013.6 hPa | 0 mm | - | 175 W/m² | - |
| 1777671873 | 17.22° C | 61% | 1013.8 hPa | 0 mm | - | 183 W/m² | - |
| 1777671568 | 16.67° C | 60% | 1013.8 hPa | 0 mm | - | 237 W/m² | - |
| 1777671266 | 17.22° C | 59% | 1013.6 hPa | 0 mm | - | 186 W/m² | - |
| 1777670961 | 17.22° C | 59% | 1013.6 hPa | 0 mm | - | 297 W/m² | - |
| 1777670658 | 16.67° C | 59% | 1013.8 hPa | 0 mm | - | 302 W/m² | - |
| 1777670354 | 16.67° C | 60% | 1013.8 hPa | 0 mm | - | 187 W/m² | - |
| 1777670052 | 16.67° C | 61% | 1014.3 hPa | 0 mm | - | 190 W/m² | - |
| 1777669750 | 16.67° C | 61% | 1014.1 hPa | 0 mm | - | 197 W/m² | - |
| 1777669446 | 16.67° C | 61% | 1014.2 hPa | 0 mm | - | 167 W/m² | - |
| 1777669142 | 16.67° C | 61% | 1014.4 hPa | 0 mm | - | 154 W/m² | - |
| 1777668839 | 17.22° C | 61% | 1014.4 hPa | 0 mm | - | 231 W/m² | - |
| 1777668536 | 17.22° C | 60% | 1014.3 hPa | 0 mm | - | 293 W/m² | - |
| 1777668232 | 17.22° C | 60% | 1014.4 hPa | 0 mm | - | 245 W/m² | - |
| 1777667929 | 16.67° C | 62% | 1014.6 hPa | 0 mm | - | 447 W/m² | - |
| 1777667626 | 16.67° C | 60% | 1015.2 hPa | 0 mm | - | 227 W/m² | - |
| 1777667323 | 16.67° C | 60% | 1015.2 hPa | 0 mm | - | 175 W/m² | - |
| 1777667020 | 16.67° C | 59% | 1015.1 hPa | 0 mm | - | 158 W/m² | - |
| 1777666717 | 16.67° C | 57% | 1014.9 hPa | 0 mm | - | 136 W/m² | - |
| 1777666414 | 17.22° C | 59% | 1014.7 hPa | 0 mm | - | 175 W/m² | - |
| 1777666110 | 16.67° C | 59% | 1014.7 hPa | 0 mm | - | 250 W/m² | - |
| 1777665807 | 17.22° C | 59% | 1014.5 hPa | 0 mm | - | 258 W/m² | - |
| 1777665505 | 17.22° C | 60% | 1014.2 hPa | 0 mm | - | 268 W/m² | - |
| 1777665201 | 17.22° C | 58% | 1014.1 hPa | 0 mm | - | 258 W/m² | - |
* Rain latest hour (hover to see other rain measurements)
** Current wind speed in m/s (hover to see current wind gust speed)